Location: Chippewa Lake
(41.0698°N, 81.9010°W)
Time: 02:08:18
(UTC+00:00)

Cosmos 1066 Rocket - Pass Details

Date: 09 May 2021
Orbit: 798 x 895 km, 81.2° (Epoch: 24 June)

Event Time Altitude Azimuth Distance (km) Brightness Sun altitude
Exits shadow 06:14:28 69° 333° (NNW) 942 4.4 -30.3°
Drops below altitude 10° 06:19:35 10° 7° (N) 2,516 7.6 -30.1°
Sets 06:22:00 0° 9° (N) 3,443 8.5 -30.0°
